Flag for Cabo Verde Weather past 2 weeks in Santa Maria, Cabo Verde

Now
73 °F

Scattered clouds.


Feels Like: 76 °F
Forecast: 67 / 79 °F
Wind: 18 mph from Northeast

Location: Sal

Current Time: Apr 28, 2015 at 10:31:08 AM

Latest Report: Apr 28, 2015 at 10:00 AM


Visibility: N/A

Pressure: 30.01 "Hg

Humidity: 69%

Dew point: 63 °F

Location of Santa MariaLocation

Historic Weather in Santa Maria — Graph

°F

Santa Maria temperature yesterday

Maximum temperature yesterday: 77 °F (at 12:00 PM)
Minimum temperature yesterday: 66 °F (at 12:00 AM)
Average temperature yesterday: 70 °F

Past Weeks' High & Low Weather Summary

 TemperatureHumidityPressure
High79 °F (Apr 25, 11:00 AM)94% (Apr 27, 2:00 AM)30.09 "Hg (Apr 27, 2:00 AM)
Low66 °F (Apr 16, 3:00 AM)54% (Apr 14, 2:00 PM)29.92 "Hg (Apr 15, 4:00 PM)
Average71 °F72%30.00 "Hg
* Reported Apr 13 9:00 AM — Apr 28 9:00 AM, Santa Maria, Weather by CustomWeather, © 2015

Note: Actual official high and low records may vary slightly from our data, if they occured in-between our weather recording intervals... More about our weather records

Advertising

Santa Maria weather history for previous 24 hours

 ConditionsComfort  
Time TempWeatherWind HumidityBarometerVisibility
9:00 AM
Tue, Apr 28
72 °FPartly sunny.20 mph73%30.01 "HgN/A
8:00 AM70 °FPartly sunny.18 mph73%30.01 "HgN/A
7:00 AM68 °FPartly sunny.16 mph78%29.98 "HgN/A
6:00 AM68 °FPartly sunny.18 mph78%29.95 "HgN/A
5:00 AM66 °FPartly sunny.18 mph83%29.95 "HgN/A
4:00 AM68 °FPassing clouds.21 mph83%29.92 "HgN/A
3:00 AM68 °FPassing clouds.21 mph83%29.92 "HgN/A
2:00 AM68 °FPassing clouds.17 mph83%29.95 "HgN/A
1:00 AM68 °FPassing clouds.18 mph83%29.95 "HgN/A
12:00 AM66 °FPassing clouds.15 mph88%29.98 "HgN/A
11:00 PM
Mon, Apr 27
66 °FPassing clouds.10 mph88%29.95 "HgN/A
10:00 PM68 °FPassing clouds.13 mph83%29.95 "HgN/A
9:00 PM68 °FPassing clouds.13 mph83%29.98 "HgN/A
8:00 PM68 °FPassing clouds.14 mph83%29.95 "HgN/A
7:00 PM70 °FPassing clouds.12 mph73%29.95 "HgN/A
6:00 PM72 °FPassing clouds.14 mph69%29.95 "HgN/A
5:00 PM73 °FPassing clouds.20 mph65%29.95 "HgN/A
4:00 PM75 °FScattered clouds.18 mph61%29.95 "HgN/A
3:00 PM75 °FBroken clouds.21 mph61%29.95 "HgN/A
2:00 PM77 °FBroken clouds.20 mph57%29.98 "HgN/A
1:00 PM77 °FBroken clouds.21 mph57%30.01 "HgN/A
12:00 PM77 °FBroken clouds.24 mph57%30.01 "HgN/A
11:00 AM73 °FScattered clouds.25 mph69%30.01 "HgN/A
10:00 AM73 °FScattered clouds.23 mph69%30.01 "HgN/A
Weather by CustomWeather, © 2015

See weather overviewHow to use our weather pages